Weather History for Pecos, TX

Change the Weather History Date:

Monday, October 28, 2013

  Actual Average Record
Temperature  
Mean Temperature 65 °F -  
Max Temperature 86 °F 75 °F 94 °F (1946)
Min Temperature 44 °F 43 °F 29 °F (1970)
Growing Degree Days 15 (Base 50)    
Moisture  
Dew Point 46 °F    
Average Humidity 58    
Maximum Humidity 82    
Minimum Humidity 22    
Precipitation  
Precipitation 0.00 in - - ()
Sea Level Pressure  
Sea Level Pressure 29.93 in    
Wind  
Wind Speed 3 mph (ESE)    
Max Wind Speed 8 mph    
Max Gust Speed -    
Visibility 10 miles    
Events      
Averages and records for this station are not official NWS values.
T = Trace of Precipitation, MM = Missing Value Source: NWS Daily Summary

Daily Weather History Graph

Daily Weather History Graph

Search for Another Location

Airport:

Trip Planner

Search our weather history database for the weather conditions in past years. The results will help you decide how hot, cold, wet, or windy it might be!

Date:

Astronomy

Oct. 28, 2013 Rise Set
Actual Time 8:06 AM CDT 7:08 PM CDT
Civil Twilight 7:41 AM CDT 7:33 PM CDT
Nautical Twilight 7:13 AM CDT 8:01 PM CDT
Astronomical Twilight 6:45 AM CDT 8:30 PM CDT
Moon 2:23 AM CDT (10/28) 3:31 PM CDT (10/28)
Length of Visible Light 11h 51m
Length of Day
11h 01m
Waning Crescent, 34% of the Moon is Illuminated
Oct 28
Waning Crescent
Nov 3
New
Nov 9
First Quarter
Nov 17
Full
Nov 25
Last Quarter

Hourly Weather History & Observations

Time (CDT) Temp. Windchill Dew Point Humidity Pressure Visibility Wind Dir Wind Speed Gust Speed Precip Events Conditions
12:15 AM 58.3 °F - 46.0 °F 64% 29.95 in 10.0 mi ESE 4.6 mph - N/A   Clear
12:35 AM 56.3 °F - 45.7 °F 68% 29.95 in 10.0 mi SE 5.8 mph - N/A   Clear
12:55 AM 55.6 °F - 46.2 °F 71% 29.95 in 10.0 mi SE 4.6 mph - N/A   Clear
1:15 AM 54.5 °F - 45.9 °F 73% 29.95 in 10.0 mi ESE 4.6 mph - N/A   Clear
1:55 AM 55.4 °F - 46.9 °F 73% 29.93 in 10.0 mi ESE 3.5 mph - N/A   Clear
2:15 AM 53.6 °F - 46.4 °F 77% 29.93 in 10.0 mi ESE 3.5 mph - N/A   Clear
2:35 AM 54.5 °F - 47.5 °F 77% 29.93 in 10.0 mi SE 3.5 mph - N/A   Clear
2:55 AM 54.0 °F - 47.3 °F 78% 29.93 in 10.0 mi Calm Calm - N/A   Clear
3:15 AM 54.0 °F - 47.3 °F 78% 29.93 in 10.0 mi East 3.5 mph - N/A   Clear
3:35 AM 53.1 °F - 46.6 °F 79% 29.93 in 10.0 mi East 4.6 mph - N/A   Clear
3:55 AM 52.0 °F - 46.4 °F 81% 29.92 in 10.0 mi East 3.5 mph - N/A   Clear
4:15 AM 51.3 °F - 45.9 °F 82% 29.92 in 10.0 mi Calm Calm - N/A   Clear
4:35 AM 50.5 °F - 44.4 °F 80% 29.92 in 10.0 mi Calm Calm - N/A   Clear
4:55 AM 49.5 °F - 43.7 °F 81% 29.91 in 10.0 mi Calm Calm - N/A   Clear
5:15 AM 48.9 °F - 43.3 °F 81% 29.91 in 10.0 mi Calm Calm - N/A   Clear
5:35 AM 48.2 °F - 42.6 °F 81% 29.92 in 10.0 mi NW 4.6 mph - N/A   Clear
5:55 AM 48.4 °F - 42.8 °F 81% 29.92 in 10.0 mi WNW 3.5 mph - N/A   Clear
6:15 AM 48.9 °F - 43.3 °F 81% 29.93 in 10.0 mi Calm Calm - N/A   Clear
6:35 AM 44.2 °F - 38.3 °F 80% 29.93 in 10.0 mi Calm Calm - N/A   Clear
6:55 AM 45.3 °F 44.0 °F 39.2 °F 79% 29.93 in 10.0 mi SW 3.5 mph - N/A   Clear
7:15 AM 45.0 °F 42.6 °F 38.8 °F 79% 29.93 in 10.0 mi WSW 4.6 mph - N/A   Clear
7:35 AM 45.3 °F 43.0 °F 39.0 °F 79% 29.94 in 10.0 mi WSW 4.6 mph - N/A   Clear
7:55 AM 45.1 °F 43.7 °F 39.2 °F 80% 29.95 in 10.0 mi WSW 3.5 mph - N/A   Clear
8:15 AM 45.5 °F 44.2 °F 39.2 °F 79% 29.95 in 10.0 mi WSW 3.5 mph - N/A   Clear
8:35 AM 45.1 °F - 38.5 °F 77% 29.96 in 10.0 mi Calm Calm - N/A   Clear
8:55 AM 47.3 °F - 39.4 °F 74% 29.97 in 7.0 mi Calm Calm - N/A   Clear
9:15 AM 50.2 °F - 41.0 °F 71% 29.97 in 10.0 mi SW 3.5 mph - N/A   Clear
9:35 AM 52.7 °F - 43.0 °F 70% 29.98 in 10.0 mi Calm Calm - N/A   Clear
9:55 AM 55.0 °F - 45.5 °F 70% 29.98 in 10.0 mi Calm Calm - N/A   Clear
10:15 AM 57.6 °F - 47.3 °F 69% 29.99 in 10.0 mi Calm Calm - N/A   Clear
10:35 AM 59.5 °F - 48.7 °F 67% 29.99 in 10.0 mi Calm Calm - N/A   Clear
10:55 AM 61.2 °F - 50.2 °F 67% 29.99 in 10.0 mi Calm Calm - N/A   Clear
11:15 AM 63.1 °F - 50.2 °F 63% 29.99 in 10.0 mi Calm Calm - N/A   Clear
11:35 AM 65.3 °F - 49.6 °F 57% 29.99 in 10.0 mi Calm Calm - N/A   Clear
11:55 AM 67.1 °F - 49.6 °F 53% 29.98 in 10.0 mi Calm Calm - N/A   Clear
12:15 PM 70.5 °F - 49.8 °F 48% 29.98 in 10.0 mi Calm Calm - N/A   Clear
12:35 PM 72.0 °F - 49.5 °F 45% 29.97 in 10.0 mi Calm Calm - N/A   Clear
12:55 PM 74.1 °F - 49.8 °F 42% 29.96 in 10.0 mi South 4.6 mph - N/A   Clear
1:15 PM 76.5 °F - 49.6 °F 39% 29.95 in 10.0 mi South 3.5 mph - N/A   Clear
1:35 PM 77.5 °F - 49.1 °F 37% 29.93 in 10.0 mi East 3.5 mph - N/A   Clear
1:55 PM 79.7 °F - 48.4 °F 33% 29.93 in 10.0 mi SE 3.5 mph - N/A   Clear
2:15 PM 80.8 °F - 47.3 °F 31% 29.91 in 10.0 mi Calm Calm - N/A   Clear
2:35 PM 81.7 °F - 46.4 °F 29% 29.90 in 10.0 mi ESE 4.6 mph - N/A   Clear
2:55 PM 83.3 °F - 43.7 °F 25% 29.89 in 10.0 mi Calm Calm - N/A   Clear
3:15 PM 85.1 °F - 43.7 °F 23% 29.88 in 10.0 mi East 3.5 mph - N/A   Clear
3:35 PM 84.7 °F - 43.5 °F 23% 29.87 in 10.0 mi Calm Calm - N/A   Clear
3:55 PM 84.9 °F - 43.5 °F 23% 29.86 in 10.0 mi East 4.6 mph - N/A   Clear
4:15 PM 86.2 °F - 43.3 °F 22% 29.86 in 10.0 mi SSE 5.8 mph - N/A   Clear
4:35 PM 85.3 °F - 43.0 °F 23% 29.85 in 10.0 mi Calm Calm - N/A   Clear
4:55 PM 85.8 °F - 43.2 °F 22% 29.85 in 10.0 mi East 6.9 mph - N/A   Clear
5:15 PM 85.1 °F - 43.5 °F 23% 29.85 in 10.0 mi East 8.1 mph - N/A   Clear
5:35 PM 85.1 °F - 43.2 °F 23% 29.86 in 10.0 mi ESE 4.6 mph - N/A   Clear
5:55 PM 84.4 °F - 43.2 °F 23% 29.86 in 10.0 mi Calm Calm - N/A   Clear
6:15 PM 82.8 °F - 42.8 °F 24% 29.86 in 5.0 mi NE 4.6 mph - N/A   Haze
6:35 PM 82.0 °F - 43.0 °F 25% 29.86 in 3.0 mi East 5.8 mph - N/A   Haze
6:55 PM 79.5 °F - 50.7 °F 36% 29.87 in 10.0 mi ENE 6.9 mph - N/A   Clear
7:15 PM 77.0 °F - 52.9 °F 43% 29.88 in 10.0 mi NE 5.8 mph - N/A   Clear
7:35 PM 74.8 °F - 53.2 °F 47% 29.89 in 10.0 mi NE 5.8 mph - N/A   Clear
7:55 PM 74.3 °F - 54.5 °F 50% 29.90 in 10.0 mi NE 4.6 mph - N/A   Clear
8:15 PM 71.6 °F - 54.5 °F 55% 29.91 in 10.0 mi ENE 5.8 mph - N/A   Clear
8:35 PM 70.5 °F - 54.5 °F 57% 29.91 in 10.0 mi Calm Calm - N/A   Clear
8:55 PM 69.3 °F - 54.1 °F 59% 29.92 in 10.0 mi Calm Calm - N/A   Clear
9:15 PM 69.6 °F - 55.0 °F 60% 29.93 in 10.0 mi NNE 3.5 mph - N/A   Clear
9:35 PM 68.4 °F - 54.9 °F 62% 29.93 in 10.0 mi Calm Calm - N/A   Clear
9:55 PM 63.5 °F - 51.6 °F 65% 29.93 in 10.0 mi ESE 6.9 mph - N/A   Clear
10:15 PM 64.0 °F - 51.4 °F 64% 29.95 in 10.0 mi SE 6.9 mph - N/A   Clear
10:35 PM 66.4 °F - 49.1 °F 54% 29.95 in 10.0 mi SSE 6.9 mph - N/A   Clear
10:55 PM 63.5 °F - 48.6 °F 58% 29.95 in 10.0 mi South 5.8 mph - N/A   Clear
11:15 PM 61.5 °F - 47.8 °F 61% 29.96 in 10.0 mi SW 4.6 mph - N/A   Clear
11:35 PM 61.7 °F - 49.3 °F 64% 29.96 in 10.0 mi SW 4.6 mph - N/A   Clear
11:55 PM 60.1 °F - 48.2 °F 65% 29.96 in 10.0 mi WSW 4.6 mph - N/A   Clear